Weather History for Siren, WI

Change the Weather History Date:

Monday, December 31, 2012

  Actual Average Record
Temperature  
Mean Temperature 5 °F -  
Max Temperature 17 °F - - ()
Min Temperature -7 °F - - ()
Degree Days  
Heating Degree Days 60    
Moisture  
Dew Point 1 °F    
Average Humidity 73    
Maximum Humidity 93    
Minimum Humidity 53    
Precipitation  
Precipitation 0.00 in - - ()
Sea Level Pressure  
Sea Level Pressure 30.12 in    
Wind  
Wind Speed 7 mph (NNW)    
Max Wind Speed 15 mph    
Max Gust Speed 24 mph    
Visibility 10 miles    
Events Snow    
T = Trace of Precipitation, MM = Missing Value Source: NWS Daily Summary

Daily Weather History Graph

Daily Weather History Graph

Search for Another Location

Airport:

Trip Planner

Search our weather history database for the weather conditions in past years. The results will help you decide how hot, cold, wet, or windy it might be!

Date:

Astronomy

Dec. 31, 2012 Rise Set
Actual Time 7:50 AM CST 4:34 PM CST
Civil Twilight 7:16 AM CST 5:09 PM CST
Nautical Twilight 6:38 AM CST 5:47 PM CST
Astronomical Twilight 6:02 AM CST 6:23 PM CST
Moon 8:17 PM CST 9:22 AM CST
Length of Visible Light 9h 52m
Length of Day
8h 44m
Waning Gibbous, 90% of the Moon is Illuminated
Dec 31
Waning Gibbous
Jan 4
Last Quarter
Jan 11
New
Jan 18
First Quarter
Jan 26
Full

Hourly Weather History & Observations

Time (CST) Temp. Windchill Dew Point Humidity Pressure Visibility Wind Dir Wind Speed Gust Speed Precip Events Conditions
12:15 AM 14.0 °F 5.1 °F 12.2 °F 93% 29.90 in 10.0 mi WNW 5.8 mph - N/A   Overcast
12:35 AM 14.0 °F 3.9 °F 12.2 °F 93% 29.92 in 10.0 mi WNW 6.9 mph - N/A   Overcast
12:55 AM 14.0 °F 2.0 °F 12.2 °F 93% 29.93 in 10.0 mi NW 9.2 mph - N/A   Overcast
1:15 AM 15.8 °F 6.1 °F 12.2 °F 86% 29.94 in 10.0 mi WNW 6.9 mph - N/A   Overcast
1:35 AM 15.8 °F 7.2 °F 12.2 °F 86% 29.95 in 10.0 mi WNW 5.8 mph - N/A   Overcast
1:55 AM 15.8 °F 6.1 °F 12.2 °F 86% 29.95 in 10.0 mi WNW 6.9 mph - N/A   Overcast
2:15 AM 15.8 °F 6.1 °F 12.2 °F 86% 29.97 in 7.0 mi NW 6.9 mph - N/A Snow Light Snow
2:35 AM 15.8 °F 6.1 °F 12.2 °F 86% 29.98 in 7.0 mi NW 6.9 mph - N/A Snow Light Snow
2:55 AM 15.8 °F 6.1 °F 12.2 °F 86% 29.99 in 7.0 mi NNW 6.9 mph - N/A Snow Light Snow
3:15 AM 17.6 °F 8.2 °F 12.2 °F 79% 30.00 in 10.0 mi NNW 6.9 mph - N/A Snow Light Snow
3:35 AM 17.6 °F 3.2 °F 10.4 °F 73% 30.01 in 10.0 mi North 15.0 mph 21.9 mph N/A   Overcast
3:55 AM 17.6 °F 4.3 °F 10.4 °F 73% 30.02 in 10.0 mi NNW 12.7 mph - N/A   Overcast
4:15 AM 15.8 °F 2.1 °F 8.6 °F 73% 30.03 in 10.0 mi NNW 12.7 mph 24.2 mph N/A   Overcast
4:35 AM 14.0 °F 0.5 °F 6.8 °F 73% 30.03 in 10.0 mi NNW 11.5 mph 17.3 mph N/A   Mostly Cloudy
4:55 AM 12.2 °F 0.7 °F 5.0 °F 73% 30.04 in 10.0 mi NNW 8.1 mph - N/A   Scattered Clouds
5:15 AM 12.2 °F 2.9 °F 5.0 °F 73% 30.05 in 10.0 mi NNW 5.8 mph - N/A   Scattered Clouds
5:35 AM 10.4 °F - 5.0 °F 79% 30.05 in 10.0 mi Calm Calm - N/A   Scattered Clouds
5:55 AM 8.6 °F 2.0 °F 5.0 °F 85% 30.06 in 10.0 mi NW 3.5 mph - N/A   Overcast
6:15 AM 10.4 °F -0.4 °F 5.0 °F 79% 30.06 in 10.0 mi NNW 6.9 mph - N/A   Overcast
6:35 AM 10.4 °F -1.5 °F 5.0 °F 79% 30.07 in 10.0 mi NNW 8.1 mph - N/A   Overcast
6:55 AM 10.4 °F 0.8 °F 5.0 °F 79% 30.09 in 10.0 mi NW 5.8 mph - N/A   Overcast
7:15 AM 10.4 °F 2.2 °F 5.0 °F 79% 30.09 in 10.0 mi NW 4.6 mph - N/A Snow Light Snow
7:35 AM 10.4 °F 2.2 °F 5.0 °F 79% 30.10 in 10.0 mi NW 4.6 mph - N/A   Overcast
7:55 AM 10.4 °F 4.0 °F 5.0 °F 79% 30.10 in 10.0 mi WNW 3.5 mph - N/A Snow Light Snow
8:15 AM 8.6 °F 0.1 °F 3.2 °F 79% 30.11 in 10.0 mi NW 4.6 mph - N/A   Scattered Clouds
8:35 AM 8.6 °F -3.7 °F 3.2 °F 79% 30.11 in 10.0 mi NNW 8.1 mph - N/A   Scattered Clouds
8:55 AM 8.6 °F -4.7 °F 3.2 °F 79% 30.12 in 10.0 mi NNW 9.2 mph - N/A   Clear
9:15 AM 10.4 °F -1.5 °F 3.2 °F 73% 30.13 in 10.0 mi North 8.1 mph - N/A   Clear
9:35 AM 8.6 °F -4.7 °F 3.2 °F 79% 30.14 in 10.0 mi NNW 9.2 mph - N/A   Clear
9:55 AM 8.6 °F -4.7 °F 3.2 °F 79% 30.14 in 10.0 mi North 9.2 mph - N/A   Clear
10:15 AM 10.4 °F -3.3 °F 1.4 °F 67% 30.15 in 10.0 mi North 10.4 mph 16.1 mph N/A   Clear
10:35 AM 10.4 °F -3.3 °F 1.4 °F 67% 30.15 in 10.0 mi North 10.4 mph 16.1 mph N/A   Clear
10:55 AM 10.4 °F -1.5 °F 1.4 °F 67% 30.15 in 10.0 mi NNW 8.1 mph - N/A   Clear
11:15 AM 10.4 °F 0.8 °F 1.4 °F 67% 30.15 in 10.0 mi North 5.8 mph - N/A   Clear
11:35 AM 10.4 °F -2.4 °F 1.4 °F 67% 30.14 in 10.0 mi NNW 9.2 mph - N/A   Clear
11:55 AM 12.2 °F 1.7 °F 1.4 °F 62% 30.14 in 10.0 mi NW 6.9 mph - N/A   Clear
12:15 PM 12.2 °F 0.7 °F -0.4 °F 57% 30.13 in 10.0 mi North 8.1 mph - N/A   Clear
12:35 PM 12.2 °F -0.2 °F -0.4 °F 57% 30.12 in 10.0 mi North 9.2 mph - N/A   Clear
12:55 PM 12.2 °F 0.7 °F 1.4 °F 62% 30.12 in 10.0 mi NNW 8.1 mph - N/A   Clear
1:15 PM 12.2 °F 0.7 °F 1.4 °F 62% 30.12 in 10.0 mi NNW 8.1 mph - N/A   Clear
1:35 PM 12.2 °F 6.1 °F 1.4 °F 62% 30.12 in 10.0 mi NW 3.5 mph - N/A   Clear
1:55 PM 14.0 °F 2.9 °F 1.4 °F 57% 30.12 in 10.0 mi NNW 8.1 mph - N/A   Clear
2:15 PM 14.0 °F 3.9 °F -0.4 °F 53% 30.13 in 10.0 mi NNW 6.9 mph - N/A   Clear
2:35 PM 14.0 °F 2.9 °F -0.4 °F 53% 30.14 in 10.0 mi NNW 8.1 mph - N/A   Clear
2:55 PM 14.0 °F 5.1 °F -0.4 °F 53% 30.15 in 10.0 mi North 5.8 mph - N/A   Clear
3:15 PM 12.2 °F 0.7 °F -0.4 °F 57% 30.15 in 10.0 mi NNW 8.1 mph - N/A   Clear
3:35 PM 12.2 °F 2.9 °F -2.2 °F 53% 30.16 in 10.0 mi NW 5.8 mph - N/A   Clear
3:55 PM 12.2 °F 2.9 °F -2.2 °F 53% 30.16 in 10.0 mi NNW 5.8 mph - N/A   Clear
4:35 PM 10.4 °F 0.8 °F -2.2 °F 57% 30.17 in 10.0 mi NNW 5.8 mph - N/A   Clear
4:55 PM 8.6 °F 0.1 °F -4.0 °F 57% 30.18 in 10.0 mi NW 4.6 mph - N/A   Clear
5:15 PM 8.6 °F 2.0 °F -4.0 °F 57% 30.19 in 10.0 mi NNW 3.5 mph - N/A   Clear
5:35 PM 6.8 °F -2.0 °F -4.0 °F 61% 30.19 in 10.0 mi NNW 4.6 mph - N/A   Clear
5:55 PM 5.0 °F -4.1 °F -4.0 °F 66% 30.19 in 10.0 mi NNW 4.6 mph - N/A   Clear
6:15 PM 5.0 °F -5.6 °F -4.0 °F 66% 30.20 in 10.0 mi North 5.8 mph - N/A   Clear
6:35 PM 5.0 °F -5.6 °F -4.0 °F 66% 30.20 in 10.0 mi North 5.8 mph - N/A   Clear
6:55 PM 5.0 °F -4.1 °F -4.0 °F 66% 30.19 in 10.0 mi North 4.6 mph - N/A   Clear
7:15 PM 3.2 °F -6.2 °F -4.0 °F 72% 30.20 in 10.0 mi North 4.6 mph - N/A   Clear
7:35 PM 1.4 °F -8.3 °F -5.8 °F 72% 30.21 in 10.0 mi NNW 4.6 mph - N/A   Clear
7:55 PM 1.4 °F -6.2 °F -5.8 °F 72% 30.21 in 10.0 mi NNW 3.5 mph - N/A   Clear
8:15 PM 1.4 °F -6.2 °F -5.8 °F 72% 30.21 in 10.0 mi NNW 3.5 mph - N/A   Clear
8:35 PM 1.4 °F -6.2 °F -5.8 °F 72% 30.21 in 10.0 mi NNW 3.5 mph - N/A   Clear
8:55 PM -0.4 °F -8.3 °F -5.8 °F 78% 30.21 in 10.0 mi NNW 3.5 mph - N/A   Clear
9:15 PM -0.4 °F -8.3 °F -5.8 °F 78% 30.21 in 10.0 mi NNW 3.5 mph - N/A   Clear
9:35 PM -0.4 °F - -5.8 °F 78% 30.21 in 10.0 mi Calm Calm - N/A   Clear
10:15 PM -5.8 °F - -7.6 °F 92% 30.22 in 10.0 mi Calm Calm - N/A   Clear
10:35 PM -5.8 °F - -9.4 °F 84% 30.22 in 10.0 mi Calm Calm - N/A   Clear
10:55 PM -5.8 °F - -7.6 °F 92% 30.23 in 10.0 mi Calm Calm - N/A   Clear
11:15 PM -5.8 °F - -9.4 °F 84% 30.23 in 10.0 mi Calm Calm - N/A   Clear
11:35 PM -7.6 °F - -11.2 °F 84% 30.24 in 10.0 mi Calm Calm - N/A   Clear
11:55 PM -7.6 °F - -11.2 °F 84% 30.23 in 10.0 mi Calm Calm - N/A   Clear